Weather History for Falls City, NE

Change the Weather History Date:

Thursday, May 22, 2014

  Actual Average Record
Temperature  
Mean Temperature 64 °F -  
Max Temperature 73 °F 76 °F 91 °F (1956)
Min Temperature 55 °F 54 °F 37 °F (1963)
Degree Days  
Heating Degree Days 1    
Growing Degree Days 14 (Base 50)    
Moisture  
Dew Point 55 °F    
Average Humidity 75    
Maximum Humidity 100    
Minimum Humidity 44    
Precipitation  
Precipitation 0.82 in - - ()
Sea Level Pressure  
Sea Level Pressure 30.12 in    
Wind  
Wind Speed 13 mph (ENE)    
Max Wind Speed 51 mph    
Max Gust Speed 62 mph    
Visibility 9 miles    
Events Rain , Thunderstorm    
Averages and records for this station are not official NWS values.
T = Trace of Precipitation, MM = Missing Value Source: NWS Daily Summary

Daily Weather History Graph

Daily Weather History Graph

Search for Another Location

Airport:

Trip Planner

Search our weather history database for the weather conditions in past years. The results will help you decide how hot, cold, wet, or windy it might be!

Date:

Astronomy

May. 22, 2014 Rise Set
Actual Time 6:01 AM CDT 8:37 PM CDT
Civil Twilight 5:29 AM CDT 9:08 PM CDT
Nautical Twilight 4:50 AM CDT 9:48 PM CDT
Astronomical Twilight 4:06 AM CDT 10:32 PM CDT
Moon 2:21 AM CDT (5/22) 2:26 PM CDT (5/22)
Length of Visible Light 15h 39m
Length of Day
14h 36m
Last Quarter, 37% of the Moon is Illuminated
May 22
Last Quarter
May 28
New
Jun 5
First Quarter
Jun 12
Full
Jun 19
Last Quarter

Hourly Weather History & Observations

Time (CDT) Temp. Dew Point Humidity Pressure Visibility Wind Dir Wind Speed Gust Speed Precip Events Conditions
12:53 AM 71.1 °F 52.0 °F 51% 30.01 in 10.0 mi ENE 6.9 mph - N/A   Clear
1:53 AM 71.1 °F 48.0 °F 44% 30.03 in 10.0 mi ENE 6.9 mph - N/A   Scattered Clouds
2:53 AM 69.1 °F 48.0 °F 47% 30.01 in 10.0 mi ENE 10.4 mph - N/A   Mostly Cloudy
3:53 AM 68.0 °F 46.9 °F 47% 30.03 in 10.0 mi East 11.5 mph - N/A   Mostly Cloudy
4:53 AM 66.9 °F 46.9 °F 49% 30.02 in 10.0 mi East 11.5 mph - N/A   Partly Cloudy
5:18 AM 66.0 °F 48.0 °F 52% 30.06 in 10.0 mi East 10.4 mph - 0.00 in Rain , Thunderstorm Light Rain
5:30 AM 64.9 °F 50.0 °F 58% 30.19 in 9.0 mi West 36.8 mph 49.5 mph 0.00 in Rain , Thunderstorm Light Thunderstorms and Rain
5:36 AM 60.1 °F 54.0 °F 80% 30.21 in 1.8 mi WNW 50.6 mph 57.5 mph 0.12 in Rain , Thunderstorm Heavy Thunderstorms and Rain
5:44 AM 57.9 °F 55.0 °F 90% 30.29 in 0.8 mi West 25.3 mph 62.1 mph 0.37 in Rain , Thunderstorm Heavy Thunderstorms and Rain
5:53 AM 55.9 °F 55.9 °F 100% 30.19 in 1.2 mi North 15.0 mph 27.6 mph 0.63 in Rain , Thunderstorm Heavy Thunderstorms and Rain
5:58 AM 55.9 °F 55.9 °F 100% 30.20 in 2.0 mi North 13.8 mph 21.9 mph 0.04 in Rain , Thunderstorm Heavy Thunderstorms and Rain
6:07 AM 57.0 °F 55.0 °F 93% 30.16 in 4.0 mi NNE 18.4 mph 23.0 mph 0.09 in Rain , Thunderstorm Heavy Thunderstorms and Rain
6:53 AM 57.0 °F 55.9 °F 96% 30.14 in 10.0 mi NE 13.8 mph 25.3 mph 0.14 in Rain Light Rain
7:21 AM 57.0 °F 55.9 °F 96% 30.17 in 9.0 mi ENE 8.1 mph - 0.03 in Rain , Thunderstorm Rain
7:49 AM 57.2 °F 55.4 °F 94% 30.14 in 10.0 mi East 13.8 mph - 0.05 in Rain Light Rain
7:53 AM 57.0 °F 55.9 °F 96% 30.13 in 10.0 mi East 15.0 mph - 0.05 in Rain Light Rain
8:53 AM 57.9 °F 57.0 °F 97% 30.09 in 10.0 mi ESE 15.0 mph - 0.00 in   Mostly Cloudy
9:53 AM 61.0 °F 55.9 °F 83% 30.11 in 10.0 mi East 10.4 mph - 0.00 in   Clear
10:53 AM 64.0 °F 57.0 °F 78% 30.12 in 10.0 mi ESE 10.4 mph - N/A   Clear
11:53 AM 66.0 °F 57.0 °F 73% 30.13 in 10.0 mi ESE 12.7 mph - N/A   Clear
12:53 PM 69.1 °F 57.9 °F 68% 30.15 in 10.0 mi ENE 9.2 mph - N/A   Clear
1:53 PM 71.1 °F 57.9 °F 63% 30.13 in 10.0 mi NNE 11.5 mph - N/A   Clear
2:53 PM 70.0 °F 59.0 °F 68% 30.14 in 10.0 mi NE 9.2 mph - N/A   Partly Cloudy
3:53 PM 72.0 °F 60.1 °F 66% 30.13 in 10.0 mi ENE 6.9 mph - N/A   Scattered Clouds
4:53 PM 72.0 °F 59.0 °F 64% 30.11 in 10.0 mi East 8.1 mph - N/A   Partly Cloudy
5:53 PM 73.0 °F 59.0 °F 61% 30.08 in 10.0 mi ENE 11.5 mph - N/A   Scattered Clouds
6:53 PM 71.1 °F 59.0 °F 66% 30.06 in 10.0 mi ENE 11.5 mph - N/A   Clear
7:53 PM 69.1 °F 59.0 °F 70% 30.09 in 10.0 mi East 9.2 mph - N/A   Clear
8:53 PM 64.9 °F 59.0 °F 81% 30.10 in 10.0 mi ENE 5.8 mph - N/A   Clear
9:53 PM 63.0 °F 57.9 °F 84% 30.13 in 10.0 mi East 3.5 mph - N/A   Clear
10:53 PM 63.0 °F 57.9 °F 84% 30.14 in 10.0 mi Calm Calm - N/A   Clear
11:53 PM 62.1 °F 57.9 °F 86% 30.14 in 10.0 mi SSE 3.5 mph - N/A   Clear